Voltar ao catálogo

COSMOS 249 DEB *

AtivoLEO
NORAD 3790·DEBRIS·🇷🇺 Russia

Lançado Oct 20, 1968 de Baikonur Cosmodrome

Loading…

Próximas Passagens (próximas 24 horas)

TLE

AtualizadoSource: Space-Track

Época: Sep 14, 2026, 18:50 UTC

1 03790U 68091AX  26257.78532985  .00000210  00000-0  12388-3 0  9990
2 03790  62.9920  75.6431 0717850 324.2711  31.2216 13.40814000779495

Acompanhe COSMOS 249 DEB * em tempo real com AllMySat

Download on the App Store